Voltar ao catálogo

ONEWEB-0233

AtivoComunicaçõesPO
NORAD 48795·PAYLOAD·🇬🇧 United Kingdom

Lançado May 28, 2021 de Vostochny Cosmodrome

Loading…

Próximas Passagens (próximas 24 horas)

TLE

AtualizadoSource: CelesTrak SupGP

Época: Sep 14, 2026, 16:44 UTC

1 48795C 21045AE  26257.69737685 -.00000970  00000+0 -25797-2 0  2574
2 48795  87.8982 241.3841 0002000  77.6093 315.4782 13.15549365    17

Acompanhe ONEWEB-0233 em tempo real com AllMySat

Download on the App Store